TDRS 3

Last updated on Tue Sep 22 2026 00:03:06 GMT+0000 (Coordinated Universal Time)

1 19548U 88091B 26264.21649464 -.00000295 00000+0 00000+0 0 9994 2 19548 12.5312 340.3560 0038276 352.0087 56.8917 1.00272504126359
UTC large
Height (km)
Speed (km/s)
/
Latitude / Longitude
Inclination (degrees)
Orbital Period (minutes)
Azimuth
Elevation
Range (km)
Doppler Factor

Next 0 passes for location: London (51.5072 / 0.1276)

No passes found over London.
TDRS 3